FW3118 Weather Reports


time (UTC)temp
C
wind
direction
speed
KPH
gust
KPH
rain 1hr
cm
rain 24hr
cm
rain mn
cm
humidity
%
barometer
mb
20260504081600 5 267 4.8 14.5 0.00 0.00 0.00 69 950.5
20260504044546 6 265 4.8 9.7 0.00 0.00 0.00 65 950.6
20260504043047 7 259 4.8 9.7 0.00 0.00 0.00 63 950.8
20260504041543 7 257 4.8 8.0 0.00 0.00 0.00 62 950.7
20260504040043 7 257 3.2 6.4 0.00 0.00 0.00 65 950.6
20260504034544 7 336 1.6 4.8 0.00 0.00 0.00 64 950.7
20260504033043 8 340 0.0 0.0 0.00 0.00 0.00 60 950.6
20260504031546 8 340 0.0 6.4 0.00 0.00 0.00 61 950.8
20260504030044 8 344 3.2 9.7 0.00 0.00 0.00 60 950.9
20260504024543 8 321 3.2 9.7 0.00 0.00 0.00 60 951.0
20260504023042 8 351 4.8 14.5 0.00 0.00 0.00 60 951.2
20260504021542 8 330 4.8 12.9 0.00 0.00 0.00 60 951.0
20260504020041 8 355 4.8 14.5 0.00 0.00 0.00 60 951.0
20260504014553 8 91 6.4 16.1 0.00 0.00 0.00 60 951.0
20260504013041 8 9 4.8 12.9 0.00 0.00 0.00 58 950.9
20260504011539 8 12 8.0 19.3 0.00 0.00 0.00 56 951.0
20260504010037 8 5 8.0 19.3 0.00 0.00 0.00 55 950.8
20260504004537 8 13 9.7 24.1 0.00 0.00 0.00 55 950.7
20260504003041 8 319 3.2 8.0 0.00 0.00 0.00 56 950.4
20260504001547 8 299 0.0 0.0 0.00 0.00 0.00 59 950.1
20260504000043 8 299 0.0 3.2 0.00 0.00 0.00 56 949.9
20260503234538 8 298 1.6 4.8 0.00 0.00 0.00 55 949.9
20260503233037 9 283 1.6 8.0 0.00 0.00 0.00 57 949.8
20260503231542 9 294 1.6 6.4 0.00 0.00 0.00 56 949.8
20260503230037 9 331 3.2 14.5 0.00 0.00 0.00 54 949.7
20260503224539 10 16 4.8 22.5 0.00 0.00 0.00 52 949.9
20260503223034 10 342 4.8 17.7 0.00 0.00 0.00 53 949.8
20260503221539 10 35 8.0 24.1 0.00 0.00 0.00 51 950.1
20260503220033 10 321 12.9 25.7 0.00 0.00 0.00 51 950.1
20260503214534 9 11 11.3 30.6 0.00 0.00 0.00 53 950.1
20260503213035 9 355 12.9 30.6 0.00 0.00 0.00 52 950.1
20260503211534 9 333 17.7 32.2 0.00 0.00 0.00 53 950.1
20260503210134 9 5 16.1 43.5 0.00 0.00 0.00 51 950.0
20260503204537 9 355 6.4 27.4 0.00 0.00 0.00 51 949.6
20260503203036 10 31 8.0 25.7 0.00 0.00 0.00 47 949.7
20260503201536 9 351 16.1 37.0 0.00 0.00 0.00 46 949.9
20260503200042 10 16 14.5 25.7 0.00 0.00 0.00 45 949.9
20260503194531 10 19 9.7 32.2 0.00 0.00 0.00 46 950.1
20260503193038 10 5 16.1 33.8 0.00 0.00 0.00 44 950.3
20260503191538 10 5 8.0 22.5 0.00 0.00 0.00 45 950.4
20260503190044 10 15 17.7 29.0 0.00 0.00 0.00 43 950.4
20260503184536 10 328 14.5 35.4 0.00 0.00 0.00 41 950.6
20260503183036 10 348 14.5 32.2 0.00 0.00 0.00 43 950.8
20260503181534 10 355 19.3 32.2 0.00 0.00 0.00 43 950.9
20260503180032 8 355 17.7 33.8 0.00 0.00 0.00 47 951.1
20260503174530 8 306 11.3 29.0 0.00 0.00 0.00 46 951.1
20260503173031 7 13 14.5 25.7 0.00 0.00 0.00 44 951.2
20260503171524 8 355 12.9 29.0 0.00 0.00 0.00 44 951.5